Home   Weather   Dover   Past weeks

Flag for USA Past Weather in Dover, Delaware, USA — Yesterday and Last 2 Weeks

Now
68 °F

Sunny.


Feels Like: 68 °F
Forecast: 49 / 65 °F
Wind: 7 mph from North

Location: Dover Air Force Base

Current Time: Feb 19, 2017 at 1:57:39 pm

Latest Report: Feb 19, 2017 at 12:58 pm


Visibility: 10 mi

Pressure: 29.85 "Hg

Humidity: 45%

Dew Point: 46 °F

Location of DoverLocation

Past Weather in Dover — Graph

°F

Dover Temperature Yesterday

Maximum temperature yesterday: 69 °F (at 2:58 pm)
Minimum temperature yesterday: 29 °F (at 3:58 am)
Average temperature yesterday: 50 °F

High & Low Weather Summary for the Past Weeks

 TemperatureHumidityPressure
High71 °F (Feb 8, 1:58 pm)100% (Feb 8, 5:58 am)30.46 "Hg (Feb 8, 5:58 am)
Low23 °F (Feb 10, 6:58 am)34% (Feb 18, 2:58 pm)29.39 "Hg (Feb 15, 1:58 pm)
Average42 °F70%29.87 "Hg
* Reported Feb 4 11:58 am — Feb 19 11:58 am, Dover, Weather by CustomWeather, © 2017

Note: Actual official high and low records may vary slightly from our data, if they occured in-between our weather recording intervals... More about our weather records

Advertising

Dover Weather History for the Previous 24 Hours

Scroll right to see more
 ConditionsComfort  
Time TempWeatherWind HumidityBarometerVisibility
11:58 am
Sun, Feb 19
65 °FPassing clouds.10 mph50%29.88 "Hg10 mi
10:58 am63 °FOvercast.12 mph53%29.88 "Hg10 mi
9:58 am62 °FPartly sunny.10 mph52%29.87 "Hg10 mi
8:58 am59 °FScattered clouds.7 mph56%29.86 "Hg10 mi
7:58 am56 °FOvercast.5 mph57%29.85 "Hg10 mi
6:58 am54 °FOvercast.6 mph59%29.83 "Hg10 mi
5:58 am56 °FOvercast.8 mph55%29.81 "Hg10 mi
4:58 am59 °FPassing clouds.7 mph47%29.79 "Hg10 mi
3:58 am55 °FPassing clouds.7 mph54%29.75 "Hg10 mi
2:58 am56 °FPassing clouds.8 mph49%29.77 "Hg10 mi
1:58 am57 °FClear.8 mph49%29.77 "Hg10 mi
12:58 am57 °FPassing clouds.8 mph52%29.75 "Hg10 mi
11:58 pm
Sat, Feb 18
59 °FPassing clouds.9 mph47%29.76 "Hg10 mi
10:58 pm59 °FClear.12 mph48%29.75 "Hg10 mi
9:58 pm53 °FPassing clouds.8 mph62%29.74 "Hg10 mi
8:58 pm55 °FPassing clouds.7 mph59%29.75 "Hg10 mi
7:58 pm56 °FClear.7 mph57%29.76 "Hg10 mi
6:58 pm59 °FClear.12 mph51%29.76 "Hg10 mi
5:58 pm60 °FPassing clouds.16 mph47%29.74 "Hg10 mi
4:58 pm63 °FPassing clouds.16 mph40%29.74 "Hg10 mi
3:58 pm66 °FSunny.16 mph37%29.73 "Hg10 mi
2:58 pm69 °FSunny.20 mph34%29.73 "Hg10 mi
1:58 pm68 °FSunny.17 mph37%29.75 "Hg10 mi
Weather by CustomWeather, © 2017

See weather overviewHow to use our weather pages